When you browse on this site, cookies collect data to enhance your experience and personalize the content and advertising you see.
Visit our Privacy Policy to learn more. By continuing to use the site, you agree to this use of cookies and data.
  • în România
  • Lista ţărilor
  • Pe 7 zile
  • Temperatura apei
  • Hartă satelitară
  • Meteo pe hartă
  • Widget-uri
  • user-avatar
    Intrare

    Meteo pe oră la Annaba

    Astăzi, 16 Ianuarie, Miercuri

    Timp Temperatura Precipitaţii Vânt Presiune Umiditate
    00:00 +11°C° 0 mm 1 m/s 765 mmHg 85%
    01:00 +10°C° 0 mm 1 m/s 765 mmHg 86%
    02:00 +10°C° 0 mm 1 m/s 765 mmHg 86%
    03:00 +10°C° 0 mm 1 m/s 765 mmHg 86%
    04:00 +9°C° 0 mm 1 m/s 764 mmHg 86%
    05:00 +9°C° 0 mm 1 m/s 764 mmHg 85%
    06:00 +9°C° 0 mm 1 m/s 764 mmHg 85%
    07:00 +9°C° 0 mm 1 m/s 764 mmHg 84%
    08:00 +10°C° 0 mm 1 m/s 764 mmHg 79%
    09:00 +12°C° 0 mm 1 m/s 764 mmHg 74%
    10:00 +13°C° 0 mm 1 m/s 764 mmHg 69%
    11:00 +15°C° 0 mm 1 m/s 764 mmHg 62%
    12:00 +16°C° 0 mm 1 m/s 763 mmHg 55%
    13:00 +19°C° 0 mm 1 m/s 763 mmHg 48%
    14:00 +19°C° 0 mm 1 m/s 763 mmHg 49%
    15:00 +19°C° 0 mm 1 m/s 762 mmHg 49%
    16:00 +19°C° 0 mm 1 m/s 762 mmHg 49%
    17:00 +16°C° 0 mm 1 m/s 762 mmHg 57%
    18:00 +14°C° 0 mm 1 m/s 762 mmHg 64%
    19:00 +13°C° 0 mm 2 m/s 762 mmHg 72%
    20:00 +12°C° 0 mm 1 m/s 762 mmHg 72%
    21:00 +12°C° 0 mm 1 m/s 762 mmHg 73%
    22:00 +11°C° 0 mm 1 m/s 763 mmHg 73%
    23:00 +11°C° 0 mm 1 m/s 762 mmHg 73%

    Mâine, 17 Ianuarie, Joi

    Timp Temperatura Precipitaţii Vânt Presiune Umiditate
    00:00 +11°C° 0 mm 1 m/s 762 mmHg 73%
    01:00 +9°C° 0 mm 2 m/s 762 mmHg 72%
    02:00 +9°C° 0 mm 2 m/s 762 mmHg 71%
    03:00 +9°C° 0 mm 2 m/s 762 mmHg 70%
    04:00 +9°C° 0 mm 2 m/s 762 mmHg 70%
    05:00 +9°C° 0 mm 2 m/s 762 mmHg 69%
    06:00 +9°C° 0 mm 2 m/s 762 mmHg 68%
    07:00 +9°C° 0 mm 2 m/s 762 mmHg 68%
    08:00 +10°C° 0 mm 2 m/s 762 mmHg 65%
    09:00 +12°C° 0 mm 2 m/s 762 mmHg 62%
    10:00 +14°C° 0 mm 1 m/s 762 mmHg 59%
    11:00 +15°C° 0 mm 1 m/s 761 mmHg 55%
    12:00 +16°C° 0 mm 1 m/s 761 mmHg 51%
    13:00 +18°C° 0 mm 1 m/s 761 mmHg 46%
    14:00 +18°C° 0 mm 1 m/s 760 mmHg 49%
    15:00 +17°C° 0 mm 2 m/s 760 mmHg 52%
    16:00 +16°C° 0 mm 2 m/s 760 mmHg 55%
    17:00 +15°C° 0 mm 1 m/s 760 mmHg 63%
    18:00 +13°C° 0 mm 1 m/s 760 mmHg 70%
    19:00 +10°C° 0 mm 0 m/s 761 mmHg 77%
    20:00 +11°C° 0 mm 1 m/s 761 mmHg 77%
    21:00 +11°C° 0 mm 1 m/s 761 mmHg 78%
    22:00 +9°C° 0 mm 2 m/s 761 mmHg 79%
    23:00 +9°C° 0 mm 2 m/s 761 mmHg 79%

    Poimâine, 18 Ianuarie, Vineri

    Timp Temperatura Precipitaţii Vânt Presiune Umiditate
    00:00 +9°C° 0 mm 2 m/s 761 mmHg 79%
    01:00 +9°C° 0 mm 2 m/s 761 mmHg 78%
    02:00 +9°C° 0 mm 2 m/s 761 mmHg 77%
    03:00 +8°C° 0 mm 2 m/s 761 mmHg 76%
    04:00 +8°C° 0 mm 2 m/s 760 mmHg 75%
    05:00 +8°C° 0 mm 2 m/s 760 mmHg 74%
    06:00 +8°C° 0 mm 2 m/s 760 mmHg 73%
    07:00 +8°C° 0 mm 3 m/s 760 mmHg 72%
    08:00 +10°C° 0 mm 3 m/s 761 mmHg 68%
    09:00 +11°C° 0 mm 3 m/s 761 mmHg 64%
    10:00 +13°C° 0 mm 3 m/s 761 mmHg 59%
    11:00 +14°C° 0 mm 3 m/s 761 mmHg 58%
    12:00 +15°C° 0 mm 4 m/s 761 mmHg 56%
    13:00 +16°C° 0 mm 5 m/s 761 mmHg 55%
    14:00 +15°C° 0.5 mm 5 m/s 760 mmHg 62%
    15:00 +15°C° 0.5 mm 4 m/s 760 mmHg 69%
    16:00 +14°C° 0.5 mm 4 m/s 760 mmHg 76%
    17:00 +13°C° 0.7 mm 3 m/s 760 mmHg 80%
    18:00 +13°C° 0.7 mm 2 m/s 761 mmHg 83%
    19:00 +12°C° 0.7 mm 2 m/s 761 mmHg 87%
    20:00 +12°C° 0.1 mm 1 m/s 761 mmHg 87%
    21:00 +12°C° 0.1 mm 1 m/s 762 mmHg 88%
    22:00 +11°C° 0.1 mm 1 m/s 762 mmHg 89%
    23:00 +11°C° 0 mm 1 m/s 762 mmHg 90%

    19 Ianuarie, Sâmbătă

    Timp Temperatura Precipitaţii Vânt Presiune Umiditate
    00:00 +11°C° 0 mm 1 m/s 762 mmHg 91%
    01:00 +9°C° 0 mm 2 m/s 762 mmHg 92%
    02:00 +9°C° 0.1 mm 2 m/s 762 mmHg 92%
    03:00 +10°C° 0.1 mm 2 m/s 761 mmHg 91%
    04:00 +10°C° 0.1 mm 2 m/s 761 mmHg 91%
    05:00 +10°C° 0.1 mm 2 m/s 761 mmHg 90%
    06:00 +10°C° 0.1 mm 2 m/s 761 mmHg 89%
    07:00 +10°C° 0.1 mm 3 m/s 761 mmHg 88%
    08:00 +11°C° 0 mm 3 m/s 761 mmHg 84%
    09:00 +12°C° 0 mm 3 m/s 761 mmHg 80%
    10:00 +13°C° 0 mm 3 m/s 761 mmHg 76%
    11:00 +14°C° 0.1 mm 3 m/s 761 mmHg 71%
    12:00 +14°C° 0.1 mm 4 m/s 760 mmHg 67%
    13:00 +15°C° 0.1 mm 4 m/s 760 mmHg 62%
    14:00 +15°C° 0.2 mm 4 m/s 760 mmHg 65%
    15:00 +14°C° 0.2 mm 4 m/s 759 mmHg 67%
    16:00 +14°C° 0.2 mm 4 m/s 759 mmHg 70%
    17:00 +13°C° 0.2 mm 4 m/s 759 mmHg 74%
    18:00 +12°C° 0.2 mm 4 m/s 760 mmHg 78%
    19:00 +11°C° 0.2 mm 3 m/s 760 mmHg 82%
    20:00 +10°C° 0 mm 3 m/s 760 mmHg 82%
    21:00 +10°C° 0 mm 3 m/s 760 mmHg 83%
    22:00 +10°C° 0 mm 3 m/s 760 mmHg 83%
    23:00 +9°C° 0 mm 3 m/s 760 mmHg 83%

    20 Ianuarie, Duminică

    Timp Temperatura Precipitaţii Vânt Presiune Umiditate
    00:00 +9°C° 0 mm 3 m/s 760 mmHg 82%
    01:00 +9°C° 0 mm 2 m/s 760 mmHg 81%
    02:00 +9°C° 0 mm 2 m/s 759 mmHg 81%
    03:00 +9°C° 0 mm 2 m/s 759 mmHg 80%
    04:00 +9°C° 0 mm 2 m/s 758 mmHg 79%
    05:00 +9°C° 0 mm 3 m/s 758 mmHg 77%
    06:00 +9°C° 0 mm 3 m/s 758 mmHg 76%
    07:00 +9°C° 0 mm 3 m/s 758 mmHg 75%
    08:00 +10°C° 0 mm 3 m/s 757 mmHg 71%
    09:00 +11°C° 0 mm 3 m/s 757 mmHg 67%
    10:00 +13°C° 0 mm 3 m/s 757 mmHg 63%
    11:00 +14°C° 0 mm 3 m/s 756 mmHg 60%
    12:00 +17°C° 0 mm 3 m/s 756 mmHg 57%
    13:00 +19°C° 0 mm 4 m/s 755 mmHg 54%
    14:00 +18°C° 0.1 mm 3 m/s 755 mmHg 59%
    15:00 +17°C° 0.1 mm 3 m/s 754 mmHg 65%
    16:00 +17°C° 0.1 mm 3 m/s 754 mmHg 70%
    17:00 +16°C° 0.1 mm 2 m/s 754 mmHg 72%
    18:00 +15°C° 0.1 mm 2 m/s 754 mmHg 75%
    19:00 +14°C° 0.1 mm 1 m/s 754 mmHg 77%
    20:00 +13°C° 0 mm 2 m/s 754 mmHg 76%
    21:00 +12°C° 0 mm 3 m/s 754 mmHg 74%
    22:00 +11°C° 0 mm 3 m/s 754 mmHg 72%
    23:00 +11°C° 0 mm 3 m/s 754 mmHg 73%

    21 Ianuarie, Luni

    Timp Temperatura Precipitaţii Vânt Presiune Umiditate
    00:00 +11°C° 0 mm 3 m/s 754 mmHg 73%
    01:00 +11°C° 0 mm 4 m/s 754 mmHg 73%
    02:00 +10°C° 0.2 mm 5 m/s 754 mmHg 76%
    03:00 +10°C° 0.2 mm 6 m/s 755 mmHg 80%
    04:00 +11°C° 0.2 mm 7 m/s 755 mmHg 83%
    05:00 +10°C° 0.2 mm 7 m/s 755 mmHg 83%
    06:00 +10°C° 0.2 mm 7 m/s 756 mmHg 82%
    07:00 +10°C° 0.2 mm 7 m/s 756 mmHg 82%
    08:00 +11°C° 0.2 mm 7 m/s 757 mmHg 80%
    09:00 +11°C° 0.2 mm 8 m/s 757 mmHg 79%
    10:00 +11°C° 0.2 mm 8 m/s 757 mmHg 77%
    11:00 +12°C° 0.4 mm 8 m/s 757 mmHg 75%
    12:00 +12°C° 0.4 mm 8 m/s 757 mmHg 73%
    13:00 +12°C° 0.4 mm 8 m/s 757 mmHg 71%
    14:00 +12°C° 0.6 mm 8 m/s 757 mmHg 72%
    15:00 +12°C° 0.6 mm 7 m/s 757 mmHg 73%
    16:00 +11°C° 0.6 mm 7 m/s 757 mmHg 74%
    17:00 +10°C° 1 mm 6 m/s 758 mmHg 78%
    18:00 +9°C° 1 mm 5 m/s 758 mmHg 83%
    19:00 +8°C° 1 mm 4 m/s 758 mmHg 87%
    20:00 +8°C° 1 mm 4 m/s 758 mmHg 87%
    21:00 +8°C° 1 mm 4 m/s 759 mmHg 88%
    22:00 +8°C° 1 mm 4 m/s 759 mmHg 88%
    23:00 +7°C° 0.5 mm 4 m/s 759 mmHg 88%
    Arată mai mult